Theta_e
320 321 322 322 322 322 322 322 322 322 323 323 323 323 322 322 321 323 315 320 324 335 335 325 322 322 324 322 321 319 317 312 314 315 321 327 325 331 334 333 335 335 334 337 340
320 321 321 321 321 321 321 321 321 322 322 322 322 322 321 322 322 316 326 335 336 339 322 317 317 320 318 317 319 317 318 317 323 325 324 326 327 328 329 330 330 331 335 338 339
321 321 321 321 321 320 320 320 321 321 322 322 322 321 321 324 320 315 335 339 339 335 320 320 321 319 315 316 316 323 318 325 325 328 329 326 327 331 326 326 329 328 331 335 336
320 321 320 320 320 320 320 320 320 321 321 321 321 321 322 324 308 322 341 341 341 323 319 318 318 315 313 312 316 322 326 327 327 328 327 326 329 327 329 329 334 334 335 335 334
320 320 320 320 320 320 319 320 320 320 320 320 322 321 323 315 314 335 345 340 324 318 317 316 315 314 312 313 319 325 327 328 328 328 328 329 327 327 327 331 334 334 334 332 330
319 319 319 319 319 319 319 318 318 318 319 321 323 321 320 312 324 334 326 326 321 317 317 315 314 316 314 314 320 328 328 327 329 328 328 325 325 326 327 330 329 328 326 327 326
319 318 318 318 319 319 319 318 317 318 321 323 322 324 315 313 326 330 328 323 321 318 314 316 315 314 321 322 329 328 324 326 327 326 325 326 320 321 329 329 326 324 326 327 328
318 318 318 318 318 319 318 318 317 320 323 322 323 326 312 320 329 324 321 319 320 318 317 317 316 316 323 329 327 323 323 317 324 325 323 322 317 323 328 329 326 325 326 327 328
318 317 317 318 318 318 317 316 318 324 322 324 327 322 312 320 319 322 320 316 317 316 317 317 316 323 325 320 318 320 313 315 319 325 322 320 318 323 328 326 325 325 326 327 329
318 317 316 317 317 317 315 316 319 320 323 325 323 315 313 315 318 319 320 315 312 313 313 313 316 318 320 317 307 312 311 315 315 321 320 319 319 323 326 325 324 324 326 326 326
318 317 316 317 317 315 316 321 316 316 316 312 312 310 311 316 319 316 318 314 315 314 310 312 308 310 314 317 311 312 310 311 316 320 319 318 319 322 325 325 324 325 326 327 327
318 317 317 316 316 315 318 312 309 311 308 314 313 312 314 314 311 315 318 311 311 308 311 309 307 312 314 316 309 309 308 311 316 319 318 317 317 322 324 324 325 325 326 327 327
316 316 316 316 315 315 315 311 315 316 309 311 311 310 312 313 312 313 314 312 309 308 308 307 309 311 308 307 306 307 308 311 310 317 318 317 315 318 323 325 326 327 328 326 326
317 316 316 314 313 315 314 314 317 318 306 307 310 312 312 314 310 318 316 313 309 306 308 308 310 308 308 307 308 305 311 312 314 313 308 318 307 317 321 321 323 325 326 326 327
316 317 316 314 315 311 312 316 319 316 296 308 308 316 314 312 313 313 318 314 308 308 308 305 306 306 306 307 310 308 312 314 315 313 313 313 309 315 320 318 321 324 326 327 329
316 316 314 317 318 317 316 316 319 304 294 305 307 307 308 311 311 314 313 315 314 309 309 307 311 310 310 311 312 317 316 316 316 314 306 312 311 310 315 318 321 325 327 327 326
315 315 314 321 311 316 317 312 304 298 306 305 306 306 307 307 308 310 309 307 304 301 302 306 307 310 315 313 318 317 315 305 303 304 302 314 310 312 321 321 323 324 325 324 324
313 311 317 320 320 318 313 308 297 301 305 309 307 308 303 306 308 308 307 305 308 306 304 301 298 308 315 314 312 314 313 304 297 299 304 313 306 315 323 325 325 327 324 323 323
310 323 319 320 318 318 308 299 300 303 307 305 307 305 304 304 306 307 307 306 307 309 303 302 304 311 312 314 316 314 308 313 306 309 304 309 313 318 320 321 324 324 321 320 321
319 317 314 318 320 314 305 298 301 306 306 306 303 306 303 303 304 306 306 309 307 309 313 309 306 310 310 312 313 315 316 307 308 300 299 305 307 309 316 318 322 320 320 320 320
317 309 314 320 317 309 299 301 301 305 306 305 306 305 305 303 305 305 306 308 310 309 312 311 309 308 310 309 308 310 310 312 313 310 301 300 307 317 320 321 320 321 321 320 319
315 303 317 318 304 305 301 303 301 304 308 307 309 309 308 308 305 306 306 308 312 312 307 312 312 306 307 311 312 314 312 313 306 306 308 307 306 316 322 324 323 321 321 320 319
311 308 318 318 300 301 304 303 304 304 305 305 309 310 311 308 306 308 308 312 313 312 311 314 310 304 305 308 311 311 312 314 315 314 307 304 306 315 320 323 323 321 320 319 318
309 301 306 311 312 307 303 302 303 308 307 309 310 312 311 311 314 309 309 312 316 314 317 317 315 310 303 305 310 308 310 313 313 308 308 307 307 312 318 319 321 320 319 318 317
310 303 308 301 305 308 308 306 303 302 309 312 310 310 311 309 310 310 311 315 316 313 316 319 312 311 309 308 308 309 310 310 309 310 305 308 305 312 318 320 320 320 318 317 315
305 304 308 309 308 307 304 306 304 305 307 308 310 310 313 312 314 311 311 314 314 317 316 318 311 313 306 308 309 307 310 309 309 309 308 307 306 316 321 322 318 317 317 315 315
314 312 308 303 308 305 306 307 306 308 309 312 311 311 312 316 318 321 320 321 319 317 316 316 313 310 304 306 308 304 309 310 311 312 310 306 312 317 317 318 318 317 317 316 316
Wind_Speed
13 13 12 13 16 18 17 17 19 17 15 16 14 12 10 8 6 7 7 5 7 17 7 13 10 10 9 5 5 5 6 11 9 8 11 9 8 8 1 11 10 8 16 15 11
15 16 15 14 15 18 19 17 19 19 16 15 13 12 8 6 7 7 9 9 17 15 15 15 15 13 7 5 4 9 5 11 6 9 13 9 11 7 7 10 14 16 16 11 11
15 15 17 16 17 18 20 19 18 19 17 16 13 10 6 9 7 8 8 12 14 12 10 10 10 10 6 5 3 2 12 11 7 11 13 13 11 10 6 10 8 14 11 12 12
17 19 19 19 19 19 21 21 19 20 18 15 11 7 5 7 2 7 10 11 10 9 11 10 10 9 5 5 4 9 5 10 11 11 12 13 13 14 12 12 10 11 12 13 12
16 18 21 20 20 21 22 22 22 21 18 14 9 4 5 6 7 8 13 12 11 10 12 10 9 4 6 6 6 14 12 12 12 11 12 13 12 13 14 12 11 13 12 12 12
15 17 18 20 21 22 23 22 23 21 17 13 4 4 6 6 4 6 15 16 11 12 9 5 4 3 6 5 3 8 14 16 15 15 13 16 12 4 10 11 10 12 14 13 13
13 16 19 19 21 23 24 22 22 20 14 4 4 6 7 7 3 8 14 13 10 9 10 4 1 8 10 10 11 16 17 14 13 11 14 13 9 9 12 10 10 11 11 11 13
13 15 18 20 22 24 26 22 21 16 4 3 5 5 1 3 6 11 7 9 8 5 2 3 1 4 2 15 9 10 13 13 11 13 7 7 9 11 11 12 12 11 10 10 10
13 15 18 20 23 26 28 24 17 5 2 4 7 5 7 3 5 10 9 8 10 8 4 6 3 4 11 13 12 13 9 13 13 11 9 8 10 12 12 12 11 11 11 9 9
14 15 18 21 24 27 28 20 4 4 5 5 4 6 4 5 6 8 9 6 9 12 7 7 8 10 12 14 12 13 8 11 10 14 10 10 7 15 15 13 12 11 10 9 9
14 17 19 21 24 28 17 3 4 7 3 8 4 4 1 2 3 8 10 11 9 14 11 12 11 14 16 16 7 5 10 9 8 5 12 10 9 13 15 15 14 13 11 10 9
15 17 19 21 24 24 11 6 7 7 10 6 10 9 8 2 5 11 12 12 12 14 10 9 15 15 13 14 8 12 11 7 3 4 11 7 10 11 16 17 15 13 13 11 10
14 16 18 22 25 8 6 7 8 4 8 2 4 5 4 10 6 15 18 10 13 13 15 14 13 10 10 11 13 13 13 11 7 9 6 5 10 14 16 15 15 12 10 11 11
13 14 16 25 5 9 1 5 11 6 7 8 6 5 8 8 8 11 15 13 9 15 12 14 6 11 13 15 17 17 18 9 11 15 5 15 2 16 17 16 14 15 14 12 12
13 13 12 8 10 7 7 10 6 6 7 5 7 5 9 12 13 12 16 11 15 11 9 11 13 14 12 15 17 11 8 16 17 12 6 14 8 11 15 15 17 17 15 12 11
14 13 11 3 7 8 9 12 5 7 3 6 6 9 14 10 7 13 14 11 13 14 11 13 0 12 11 3 9 10 13 13 11 7 11 13 13 6 12 17 17 16 11 10 12
15 14 8 8 5 7 10 7 8 8 4 7 6 8 15 12 9 14 16 18 15 15 16 15 15 6 10 14 17 11 17 9 11 10 7 6 8 9 8 5 14 16 14 14 13
12 16 7 9 8 7 7 7 8 3 0 4 1 5 9 13 14 11 16 16 20 17 11 13 16 17 16 14 11 19 14 11 6 8 3 5 7 6 5 4 5 14 15 15 14
16 6 5 3 3 5 7 9 3 0 3 4 4 8 11 11 8 14 15 16 17 14 11 13 9 17 10 10 11 14 9 4 5 3 11 2 6 7 7 8 12 16 16 15 13
6 6 5 3 4 6 8 8 3 2 5 3 4 3 11 14 13 14 13 14 18 20 14 3 7 10 7 9 3 9 12 7 9 9 9 4 6 6 13 14 15 17 16 15 13
6 6 7 4 6 7 9 8 4 3 5 4 2 3 5 6 15 14 10 7 19 22 14 9 5 8 9 11 12 7 8 5 6 5 10 10 3 6 6 15 17 17 16 15 14
4 6 5 5 8 7 11 7 1 5 5 6 6 7 6 4 13 11 12 8 17 13 20 14 4 7 7 2 5 5 9 11 9 5 4 7 5 3 1 12 14 15 15 14 13
4 3 5 4 7 9 6 9 5 5 5 3 5 5 2 5 6 12 8 2 10 17 11 11 7 8 8 6 2 8 4 4 2 5 8 9 4 2 7 12 13 15 15 14 13
4 5 6 7 4 9 10 10 7 5 9 7 8 8 7 7 8 5 9 5 8 13 5 10 4 9 7 5 4 5 8 8 8 7 2 8 4 6 10 14 15 15 15 15 12
4 2 7 7 10 8 5 2 10 6 7 6 7 9 3 4 7 10 6 8 7 7 8 7 7 5 4 3 2 2 10 9 8 0 6 8 6 5 12 15 15 15 15 14 13
4 4 5 3 5 10 7 10 7 6 5 8 8 2 2 3 8 5 3 4 5 9 10 4 5 7 3 4 7 3 6 5 5 3 1 2 3 1 11 12 15 16 16 15 14
1 3 5 4 6 9 11 9 6 2 7 11 9 10 5 5 12 12 10 4 2 7 7 6 7 6 4 1 7 7 11 11 8 5 3 7 6 12 14 15 17 17 16 15 13
Wind_Direction
344 339 333 330 324 318 322 319 312 312 315 316 325 317 322 319 267 211 201 95 165 170 219 152 187 177 189 216 238 248 203 110 112 134 121 144 129 59 7 98 55 77 87 104 115
341 337 335 333 324 320 320 318 313 314 321 320 321 317 321 301 244 224 106 127 143 178 178 179 171 172 199 183 197 258 130 81 37 83 123 107 91 97 129 113 93 103 109 114 128
337 334 332 334 330 322 318 317 316 317 320 323 324 316 314 275 233 102 115 150 165 203 182 194 172 201 199 213 135 21 96 118 113 107 117 114 98 103 115 95 106 128 126 119 124
335 333 333 335 329 322 319 319 319 315 321 323 320 305 288 240 103 89 134 146 178 228 183 185 194 206 174 149 62 123 99 109 116 125 131 106 96 69 69 77 95 110 120 131 136
329 330 329 330 328 324 320 321 321 317 319 318 309 280 243 211 89 106 136 149 189 183 186 187 204 207 157 124 129 109 112 113 130 119 107 112 87 92 91 100 111 118 132 127 113
326 325 325 325 326 324 320 320 317 314 315 309 282 216 256 201 85 136 158 165 192 192 174 198 262 286 102 102 330 129 132 124 128 122 121 116 111 131 112 120 129 135 130 130 125
324 324 324 325 326 322 317 318 312 313 311 319 166 256 257 58 54 146 163 175 190 191 174 152 331 242 140 110 126 132 134 136 138 136 131 132 111 107 137 151 149 145 136 132 124
326 325 324 326 324 321 316 319 309 309 332 116 194 259 355 58 109 153 158 162 186 178 106 120 74 96 169 119 152 177 170 175 153 162 141 235 120 144 159 173 173 169 153 146 136
327 327 326 327 326 322 317 315 303 295 95 170 230 267 130 144 176 158 185 183 168 173 126 137 162 118 149 163 155 190 192 212 161 201 150 243 132 166 172 188 177 176 167 161 139
328 328 328 328 326 322 319 300 173 213 200 235 258 231 193 136 124 156 179 189 173 169 168 189 181 170 186 194 212 189 226 203 206 179 204 188 197 168 175 192 186 184 176 167 158
329 329 330 329 326 322 321 222 271 181 298 299 345 318 106 326 190 195 172 175 189 193 187 189 191 197 189 211 359 265 216 213 214 102 201 219 201 189 183 199 195 187 185 175 178
327 328 329 328 322 317 289 46 48 328 302 259 252 269 248 297 185 163 180 184 193 194 186 180 221 203 200 211 244 233 216 174 134 207 216 201 220 202 195 207 201 197 190 185 171
323 326 328 327 318 300 343 54 336 278 260 236 210 233 192 193 202 168 188 190 196 203 202 216 211 138 189 193 208 220 222 181 234 166 224 208 219 213 210 209 213 213 214 196 185
319 325 334 326 295 343 42 350 328 222 263 131 179 153 166 204 207 177 202 192 195 210 203 234 156 199 207 213 215 236 224 190 163 186 246 203 303 194 195 201 214 215 213 210 188
316 321 333 335 314 303 6 329 337 229 218 117 122 96 160 204 130 177 188 205 208 200 203 205 202 203 213 218 208 255 189 180 184 215 178 192 262 103 186 204 209 211 212 209 155
318 316 339 218 276 275 316 312 232 231 165 129 139 171 172 188 170 138 180 229 231 225 219 262 144 216 222 169 206 146 143 157 189 192 234 170 225 193 172 214 198 196 179 159 174
313 309 304 306 281 339 314 272 228 255 146 139 135 177 192 180 166 177 185 193 201 208 211 213 224 198 163 127 155 191 169 178 216 207 276 122 220 287 151 170 190 182 160 169 163
306 302 245 258 283 306 278 233 243 58 144 88 224 218 204 198 200 178 188 200 212 212 225 214 199 182 193 201 192 202 215 267 259 275 349 144 242 98 102 122 189 160 155 165 166
298 266 261 267 287 225 242 226 224 199 16 331 244 214 185 196 228 199 207 211 194 209 230 200 221 176 202 202 217 169 228 16 279 229 268 247 139 169 166 175 170 146 161 162 157
304 289 252 105 205 219 239 255 268 299 327 271 273 246 193 188 203 199 183 207 209 206 223 54 190 196 152 179 200 251 141 197 207 263 264 178 283 297 177 173 166 163 166 159 156
262 267 74 206 197 217 231 228 263 263 294 283 292 249 244 183 212 196 190 210 199 202 212 228 273 142 172 207 189 173 196 233 303 317 308 303 26 26 157 178 176 168 166 159 163
277 237 107 170 206 205 229 218 352 254 238 266 278 268 263 219 207 220 220 245 190 181 197 209 272 192 194 41 293 306 274 198 255 196 254 300 311 50 81 158 169 165 157 159 161
256 286 142 233 224 204 194 238 255 249 241 260 251 244 226 278 235 216 213 114 192 190 189 161 211 174 168 165 160 225 177 230 240 272 259 293 51 64 158 148 166 159 156 157 156
267 226 165 207 289 290 200 220 222 200 258 260 280 264 257 238 215 229 221 150 188 212 34 199 183 246 207 183 186 179 195 194 230 258 262 257 339 149 165 164 166 159 159 162 167
223 180 348 179 207 228 228 172 218 217 217 236 230 244 293 261 228 212 217 150 159 149 175 209 194 162 85 113 113 228 178 187 224 283 287 18 305 129 180 177 170 162 163 165 174
289 265 174 284 249 227 189 206 225 212 234 204 250 35 310 257 345 337 278 208 161 177 170 191 136 144 95 187 145 173 183 192 163 168 181 269 235 60 149 160 169 174 173 176 180
295 263 281 130 194 222 209 221 201 246 231 259 308 296 265 38 331 300 285 275 311 187 155 170 147 181 124 19 122 207 198 192 184 193 289 238 75 147 164 176 181 177 180 181 180